Location: Ballingbuur
(53.0000°N, 5.7667°E)
Time: 06:42:47
(UTC+00:00)

PAYLOAD B - Pass Details

Date: 29 November 2020
Orbit: 849 x 871 km, 99.1° (Epoch: 23 January)

Event Time Altitude Azimuth Distance (km) Brightness Sun altitude
Rises 06:13:41 0° 15° (NNE) 3,443 7.3 -10.2°
Reaches altitude 10° 06:16:04 10° 14° (NNE) 2,499 6.6 -9.8°
Maximum altitude 06:21:36 78° 290° (WNW) 877 4.2 -9.1°
Drops below altitude 10° 06:27:05 10° 205° (SSW) 2,473 6.7 -8.3°
Sets 06:29:26 0° 204° (SSW) 3,404 7.4 -8.0°
